Погода в Пяндже

Погода в Пяндже : погода сейчас, прогноз погоды и архив. Всё, что Вы хотите узнать о погоде в Пяндже!

Поиск расширенной информации на нашем сайте:

Другие новости

Новости СМИ2

Главная страница сайта

Новости сайта

03.07.2017

Напоминаем, что на нашем специализированном сайте Метеоцентр.Азия вы можете получить высокодетализированные автоматические прогнозы погоды по пунктам России, СНГ и мира в авиационном формате (включающие направление и скорость ветра, видимость, явления погоды, количество и форму облачности, нижнюю и верхнюю границу облачности).


Погода в Пяндже - сегодня

Время (UTC), дата Ветер
(°,м/с) 
Видим.   Явления Облачность Т
(°С)
Тd
(°С)
f(%) Тe
(°С)
Pmin
(гПа)
dP
(гПа)
Po
(мм)
O2
(г/м3)
Тmin Tmax R s Состояние
почвы
18 18.06.18 100 (В) н/о    ясно 
+26.2 +15 50 +36  1000.7  1.1  720  261    +38.1       
21 18.06.18 130 (ЮВ) н/о    ясно 
+23 +14.6 59 +32  1002  0.9  721  264           
00 19.06.18 080 (В) 20000 м    ясно 
+20.6 +14 66 +29  1002.9  0.4  721  267           
03 19.06.18 280 (З) 20000 м    ясно 
+28.7 +16.4 47 +41  1002.3  -0.1  721  259  +19.4         
06 19.06.18 170 (Ю) 20000 м    ясно 
+33.9 +14.7 32 +43  1002.4  0.8  722  255    +19.4       
09 19.06.18 340 (С) 20000 м    ясно 
+37.8 +10.6 19 +41  1000.6  -0.7  721  253           
12 19.06.18 300 (СЗ) 20000 м    ясно 
+37.9 +15.6 27 +49  999.9  -0.5  721  252           
15 19.06.18 010 (С) 20000 м    ясно 
+29.6 +14.9 41 +39  1000.9  -0.1  721  258    +39       
18 19.06.18 130 (ЮВ) н/о    ясно 
+25.8 +14 48 +34  1001.3  -0.1  720  262    +39       
21 19.06.18 170 (Ю) н/о    ясно 
+22.4 +13 55 +29  1002.5  0.6  721  265           
00 20.06.18 320 (СЗ) 10 км    8/0 кучево-дожд. 
[Cb cap]
+21 +13.9 64 +29  1003.7  722  267           
03 20.06.18 290 (З) 10 км    6/6 1000 м 
[Sc]
+29 +17.1 49 +43  1003.9  723  259  +20.6         
09 20.06.18 320 (СЗ) 10 км    4/0 
[Cu med, cong]
+36.4 +13.7 26 +44  1005.1  1.5  724  254           
12 20.06.18 340 (С) 10 км    ясно 
+35.8 +15.9 31 +47  1004.4  -0.6  724  255           
15 20.06.18 290 (З) 10 км    ясно 
+30.1 +18 48 +46  1004.8  -0.3  723  258    +37.6       
18 20.06.18 100 (В) н/о    ясно 
+27 +15.9 51 +38  1005.8  0.4  724  261    +37.3       
21 20.06.18 150 (ЮВ) н/о    ясно 
+23.2 +14.2 57 +32  1006.7  0.3  724  265           
00 21.06.18 080 (В) 20000 м    3/0 средняя 
[Ac trans]
+20.9 +13.4 62 +28  1007.7  0.8  725  269           
03 21.06.18 230 (ЮЗ) 20000 м    ясно 
+25.2 +14.9 53 +35  1007.2  725  264  +19.8         
06 21.06.18 080 (В) 20000 м    ясно 
+33.6 +11.3 26 +37  1008.1  1.9  726  258  +19.8         
09 21.06.18 350 (С) 20000 м    ясно 
+35.4 +13.5 27 +42  1006.4  -1.4  725  255           
12 21.06.18 310 (СЗ) 20000 м    ясно 
+35.8 +13.7 27 +43  1004.6  -1.6  724  255           
15 21.06.18 250 (З) 20000 м    ясно 
+30.4 +15.3 40 +41  1005.4  724  259    +36.5       
18 21.06.18 170 (Ю) н/о    ясно 
+27.4 +15.9 49 +39  1006.3  0.5  724  261    +36.5       
21 21.06.18 120 (ЮВ) н/о    ясно 
+23.7 +13.8 54 +31  1007.2  0.5  724  265           
Время (UTC), дата Ветер
(°,м/с) 
Видим.   Явления Облачность Т
(°С)
Тd
(°С)
f(%) Тe
(°С)
Pmin
(гПа)
dP
(гПа)
Po
(мм)
O2
(г/м3)
Тmin Tmax R s Состояние
почвы

Для получения пояснительной информации подведите курсор к названию столбца.

ПОГОДА в Пяндже - архив

Всё, что Вы хотите узнать о погоде в Пяндже - удобно и подробно!

Выберите нужную дату (начиная с 1 января 2015* года) и нажмите кнопку "Найти".
Будут отображены архивные сводки погоды по пункту Пяндж, начиная с указанной даты.


Отображать данные в формате CSV (для использования в таблицах Excel)


Внимание! Наш архив погоды предназначен исключительно для личного некоммерческого использования в познавательных целях. Если Вам необходимы официальные справки о состоянии погоды (для производственных, юридических, коммерческих и т.п. целей), обращайтесь в органы Росгидромета.

*Примечание: данная дата относится к архиву по метеостанциям СССР (Россия, СНГ, Балтия).
Архив по метеостанциям Зарубежной Европы и Азии (кроме Китая) хранится 10 дней, по другим регионам земного шара (Китай, Африка, Америка, Австралия, Океания) - 1 день.

Пяндж - район местоположения метеостанции


Название, широта, долгота, высота метеостанции:
Пяндж 37.2°ш. 69.1°д. 363 м над ур. моря [Таджикистан]

Дополнительная информация

В oтличие oт бoльшинства пoгoдных сайтoв мы публикуем пoдрoбную метеoинфoрмацию в детальнoм прoфессиoнальнoм фoрмате.

Характеристики температуры и влажнoсти вoздуха измеряются на высoте 2 м в тени вдали oт зданий и деревьев.
Скoрoсть ветра измеряется на высoте 10 м (на урoвне рoста челoвека скoрoсть ветра ниже в 1.5-2 раза). Если метеoстанция нахoдится в гoрoде или в лесу, тo скoрoсть ветра занижена на 2-4 м/с пo сравнению с oткрытым местoм. Скoрoсть ветра над акватoриями крупных рек и oзёр, а также на вершинах хoлмoв на 2-5 м/с выше, чем в oбычных услoвиях.
Атмoсфернoе давление в разных тoчках местнoсти мoжет значительнo oтличаться oт давления на метеoстанции, в зависимoсти oт услoвий рельефа (при пoдъёме на 10 м давление пoнижается примернo на 1 мм рт.ст.).